User: anonymous   Login
Location: Unspecified
(0.0000°N, 0.0000°E)
Time: 02:55:38
(UTC+00:00)
Language:

Sirio 1 - Orbit

View from above orbital plane
View from above orbital plane
View from above satellite
View from above satellite

Ground track
Ground track

The orbit data is extracted from the following two-line orbital elements,

1 10294U 77080A   18171.57954642 -.00000120 +00000-0 +00000-0 0  9992
2 10294 013.1399 328.0897 0006381 066.2890 157.9407 01.00270929088650
Epoch (UTC): 20 June 2018 13:54:32
Eccentricity: 0.0006381
inclination: 13.1399°
perigee height: 35759 km
apogee height: 35813 km
right ascension of ascending node: 328.0897°
argument of perigee: 66.2890°
revolutions per day: 1.00270929
mean anomaly at epoch: 157.9407°
orbit number at epoch: 8865

The dashed part of the orbit path shows where the satellite is in the earth's shadow,  

DLR